Regional Weather Roundup
Issued by NWS Upton, NY

Current Version | Previous Version | Text Only | Print | Product List | Glossary On
Versions: 1 2 3 4 5 6 7 8 9 10 11 12 13 14 15 16 17 18 19 20 21 22 23 24 25 26 27 28 29 30 31 32 33 34 35 36 37 38 39 40 41 42 43 44 45 46 47 48 49 50
204 ASUS41 KOKX 270908 RWROKX REGIONAL WEATHER ROUNDUP NATIONAL WEATHER SERVICE NEW YORK NY 500 AM EDT MON MAR 27 2017 NOTE: "FAIR" INDICATES FEW OR NO CLOUDS BELOW 12,000 FEET WITH NO SIGNIFICANT WEATHER AND/OR OBSTRUCTIONS TO VISIBILITY. NYZ071-072-176-178-NJZ106-104-271000- NEW YORK CITY METRO AREA CITY SKY/WX TMP DP RH WIND PRES REMARKS Central Park LGT RAIN 38 37 97 NE8 30.20F FOG WCI 32 Wall St Helipt CLOUDY 39 38 96 NE9 30.19F FOG WCI 33 LaGuardia APRT DRIZZLE 40 37 89 NE10 30.18F FOG WCI 33 Kennedy INTL DRIZZLE 41 40 96 NE7 30.19F FOG Breezy Point N/A 39 N/A N/A E10G17 N/A WCI 32 Newark/Liberty DRIZZLE 39 38 96 NE6 30.17F FOG WCI 35 Teterboro CLOUDY 39 37 92 NE6 30.18F FOG WCI 35 $$ NYZ177-179-078>081-271000- LONG ISLAND NEW YORK CITY SKY/WX TMP DP RH WIND PRES REMARKS Jones Beach N/A 39 N/A N/A E13 N/A WCI 32 Matinecock PT NOT AVBL Farmingdale FOG 40 40 100 E7 30.18F VSB 3/4 MacArthur/ISP FOG 40 40 100 E8 30.17F VSB 1 WCI 34 Shirley CLOUDY 40 40 100 E8 30.19F FOG WCI 34 Westhampton CLOUDY 40 38 93 E12 30.20F FOG WCI 33 East Hampton CLOUDY 38 37 96 E9 30.20F WCI 32 Montauk N/A 40 39 97 VRB7 30.23F $$ NYZ052-065-067-271000- HUDSON VALLEY CITY SKY/WX TMP DP RH WIND PRES REMARKS White Plains DRIZZLE 36 35 96 E8 30.16F FOG WCI 30 Newburgh LGT RAIN 36 36 100 E7 30.18F FOG WCI 30 Montgomery RAIN 35 34 96 N6 30.16F FOG WCI 30 Poughkeepsie LGT RAIN 34 34 100 CALM 30.17F FOG Albany LGT RAIN 36 32 85 S10 30.14F WCI 28 $$ NJZ001-105-106-008-010-013-015-019>022-104-271000- NEW JERSEY CITY SKY/WX TMP DP RH WIND PRES REMARKS Newark/Liberty DRIZZLE 39 38 96 NE6 30.17F FOG WCI 35 Teterboro CLOUDY 39 37 92 NE6 30.18F FOG WCI 35 Caldwell LGT RAIN 37 36 96 E6 30.18F FOG WCI 32 Somerville NOT AVBL Linden CLOUDY 39 38 95 CALM 30.18F FOG Sussex LGT RAIN 36 36 100 CALM 30.15F Andover N/A 37 35 92 CALM 30.14F Trenton LGT RAIN 40 40 100 E6 30.15F VSB 1 Millville FOG 45 45 100 E6 30.12F VSB 1/2 Atlantic City FOG 44 43 96 E6 30.14F VSB 1/4 Wrightstown CLOUDY 41 40 97 E7 30.12F FOG Toms River FOG 42 41 96 E3 30.16F VSB 3/4 Belmar LGT RAIN 41 40 96 NE8 30.16F VSB 3/4 $$ PAZ047>061-062-071-271000- EASTERN PENNSYLVANIA CITY SKY/WX TMP DP RH WIND PRES REMARKS Philadelphia FOG 42 41 96 E8 30.14F VSB 3/4 Allentown LGT RAIN 41 37 86 E6 30.13F FOG Scranton LGT RAIN 39 38 96 N3 30.06F $$ CTZ002-004>006-009-010-012-RIZ004-006-007-MAZ004-011-015-271000- SOUTHERN NEW ENGLAND IN CT CITY SKY/WX TMP DP RH WIND PRES REMARKS Bradley INTL LGT RAIN 34 33 96 N6 30.24F FOG WCI 29 Hartford CLOUDY 34 33 96 N6 30.24F FOG WCI 29 Danbury CLOUDY 35 35 100 E6 30.19F FOG WCI 30 Wtrbury/Oxford CLOUDY 34 30 86 E6 30.19F VSB 3/4 WCI 29 Bridgeport CLOUDY 38 36 92 E14 30.20F FOG WCI 30 Meriden CLOUDY 36 33 89 N5 30.22F FOG WCI 32 New Haven CLOUDY 37 36 96 NE7 30.21F FOG WCI 32 Chester NOT AVBL Groton CLOUDY 37 35 92 NE8 30.23F WCI 31 Wilimantic CLOUDY 36 35 96 NE3 30.24F FOG IN RI CITY SKY/WX TMP DP RH WIND PRES REMARKS Providence CLOUDY 36 33 89 E5 30.27F WCI 32 Block Island CLOUDY 38 38 100 E12 30.24F WCI 30 Westerly CLOUDY 38 37 97 NE9 30.25F WCI 31 IN MA CITY SKY/WX TMP DP RH WIND PRES REMARKS Boston CLOUDY 37 33 85 E10 30.30F WCI 30 Worcester CLOUDY 31 29 92 E8 30.21F FOG WCI 23 Westfield LGT RAIN 33 33 100 CALM 30.23F FOG Provincetown CLOUDY 39 36 89 E10 30.30F WCI 32 Nantucket CLOUDY 40 37 89 E15 30.26F WCI 32 $$ ANZ330-335-338-340-345-350-353-355-271000- COASTAL MARINE OBSERVATIONS STATION/POSITION TIME SKY/WX TEMP WIND PRES VSBY WAVE AIR SEA DIR/SP/G HT/PER (UTC) (F) (DEG/KT/KT) (MB) (MI) (FT/S) NY HARB ENTRANCE 0750 41 42 70/ 16/ 19 1022.0 6/ 8 20 S FIRE ISLAND 0850 42 40 100/ 14/ 16 1020.8 6/ 7 GREAT SOUTH BAY NOT AVBL 23 SSW MONTAUK P 0750 41 43 1023.7 5/ 7 15 E BARNEGAT LI 0830 43 N/A 6/ 7 HUDSON CANYON 0750 45 44 60/ 8/ 8 1022.1 7/ 8 KINGS POINT 0842 38 39 1021.9 EXECUTION ROCKS NOT AVBL CENTRAL LI SOUND 0830 38 80/ 16/ 17 N/A 2/ 5 EASTERN LI SOUND NOT AVBL ROBBINS REEF 0842 38 30/ 7/ 8 1022.3 $$ >>>>>>>>>>>>>>>>>>>>>>>>>>>> KEY <<<<<<<<<<<<<<<<<<<<<<<<<<< > < > SKY/WX - Sky Condition/Present Weather < > TMP - Temperature in Fahrenheit < > DP - Dew Point in Fahrenheit < > RH - Relative Humidity in Percent < > WIND - Direction (from) and Speed in MPH < > PRES - Mean Sea Level Pressure (inches of Hg) < > WCI - Wind Chill Index < > VSB - VISIBILITY IN MILES < > HX - HEAT INDEX < > TC - TEMPERATURE IN CELSIUS < > VRB - VARIABLE WIND DIRECTION < > < >>>>>>>>>>>>>>>>>>>>>>>>>>>> KEY <<<<<<<<<<<<<<<<<<<<<<<<<<<

USA.gov is the U.S. government's official web portal to all federal, state and local government web resources and services.